TimePST,TemperatureF,Dew PointF,Humidity,Sea Level PressureIn,VisibilityMPH,Wind Direction,Wind SpeedMPH,Gust SpeedMPH,PrecipitationIn,Events,Conditions,WindDirDegrees,DateUTC
12:53 AM,34.0,32.0,92,30.49,10.0,Calm,Calm,-,N/A,,Overcast,0,2014-01-05 08:53:00
1:26 AM,33.1,30.0,89,30.48,10.0,SE,6.9,-,N/A,,Scattered Clouds,130,2014-01-05 09:26:00
1:39 AM,35.1,30.9,85,30.48,10.0,SSE,5.8,-,N/A,,Mostly Cloudy,150,2014-01-05 09:39:00
1:53 AM,33.1,30.0,89,30.50,10.0,SE,5.8,-,N/A,,Overcast,130,2014-01-05 09:53:00
2:53 AM,36.0,30.9,82,30.50,10.0,ESE,4.6,-,N/A,,Overcast,120,2014-01-05 10:53:00
3:53 AM,37.0,32.0,82,30.50,10.0,SE,4.6,-,N/A,,Overcast,130,2014-01-05 11:53:00
4:53 AM,33.1,30.0,89,30.50,10.0,SSE,4.6,-,N/A,,Overcast,150,2014-01-05 12:53:00
5:21 AM,28.9,27.0,92,30.48,10.0,SSE,3.5,-,N/A,,Scattered Clouds,160,2014-01-05 13:21:00
5:53 AM,30.0,28.0,92,30.50,10.0,Calm,Calm,-,N/A,,Partly Cloudy,0,2014-01-05 13:53:00
6:53 AM,27.0,25.0,92,30.50,10.0,SSE,5.8,-,N/A,,Partly Cloudy,150,2014-01-05 14:53:00
7:29 AM,30.0,28.9,96,30.49,10.0,SSE,5.8,-,N/A,,Mostly Cloudy,150,2014-01-05 15:29:00
7:53 AM,30.0,28.0,92,30.50,10.0,SSE,4.6,-,N/A,,Overcast,150,2014-01-05 15:53:00
8:12 AM,32.0,28.9,88,30.49,10.0,SE,5.8,-,N/A,,Scattered Clouds,130,2014-01-05 16:12:00
8:20 AM,30.9,28.0,89,30.50,10.0,SE,5.8,-,N/A,,Mostly Cloudy,140,2014-01-05 16:20:00
8:30 AM,30.9,28.9,92,30.50,10.0,SSE,4.6,-,N/A,,Scattered Clouds,150,2014-01-05 16:30:00
8:53 AM,30.9,28.9,92,30.52,10.0,SSE,5.8,-,N/A,,Partly Cloudy,150,2014-01-05 16:53:00
9:06 AM,32.0,30.0,92,30.51,10.0,SSE,4.6,-,N/A,,Mostly Cloudy,150,2014-01-05 17:06:00
9:53 AM,39.9,33.1,77,30.53,10.0,ESE,4.6,-,N/A,,Overcast,120,2014-01-05 17:53:00
10:34 AM,39.0,33.1,79,30.52,10.0,East,5.8,-,N/A,,Overcast,90,2014-01-05 18:34:00
10:53 AM,39.0,33.1,79,30.53,10.0,East,4.6,-,N/A,,Overcast,80,2014-01-05 18:53:00
11:23 AM,39.9,34.0,79,30.51,10.0,ENE,5.8,-,N/A,,Overcast,70,2014-01-05 19:23:00
11:53 AM,41.0,33.1,73,30.51,10.0,East,6.9,-,N/A,,Overcast,90,2014-01-05 19:53:00
12:27 PM,41.0,34.0,76,30.49,10.0,East,5.8,-,N/A,,Overcast,80,2014-01-05 20:27:00
12:53 PM,41.0,34.0,76,30.49,10.0,ENE,4.6,-,N/A,,Mostly Cloudy,70,2014-01-05 20:53:00
1:10 PM,41.0,32.0,70,30.47,10.0,East,5.8,-,N/A,,Partly Cloudy,100,2014-01-05 21:10:00
1:53 PM,42.1,30.0,62,30.48,10.0,East,8.1,-,N/A,,Clear,100,2014-01-05 21:53:00
2:53 PM,41.0,32.0,70,30.47,10.0,East,8.1,-,N/A,,Clear,100,2014-01-05 22:53:00
3:53 PM,39.9,32.0,73,30.46,10.0,East,4.6,-,N/A,,Clear,100,2014-01-05 23:53:00
4:53 PM,36.0,30.0,79,30.44,10.0,SE,4.6,-,N/A,,Clear,130,2014-01-06 00:53:00
5:53 PM,30.9,28.9,92,30.44,10.0,SSE,4.6,-,N/A,,Clear,150,2014-01-06 01:53:00
6:53 PM,30.9,28.0,89,30.43,10.0,SE,5.8,-,N/A,,Clear,130,2014-01-06 02:53:00
7:53 PM,30.0,28.0,92,30.42,10.0,SE,5.8,-,N/A,,Clear,140,2014-01-06 03:53:00
8:53 PM,30.0,28.0,92,30.40,10.0,SE,6.9,-,N/A,,Clear,130,2014-01-06 04:53:00
9:53 PM,28.9,27.0,92,30.39,10.0,SE,6.9,-,N/A,,Clear,130,2014-01-06 05:53:00
10:33 PM,30.0,28.0,92,30.37,10.0,SE,5.8,-,N/A,,Mostly Cloudy,130,2014-01-06 06:33:00
10:53 PM,33.1,30.9,92,30.38,10.0,SE,6.9,-,N/A,,Overcast,140,2014-01-06 06:53:00
11:53 PM,35.1,32.0,89,30.35,10.0,ESE,5.8,-,N/A,,Overcast,120,2014-01-06 07:53:00